Location: Aalen
(48.8330°N, 10.1000°E)
Time: 22:20:46
(UTC+02:00)

Transit 2A - Pass Details

Date: 31 July 2021
Orbit: 594 x 964 km, 66.7° (Epoch: 27 September)

Event Time Altitude Azimuth Distance (km) Brightness Sun altitude
Rises 13:01:56 0° 321° (NW) 3,071 8.8 58.9°
Reaches altitude 10° 13:05:47 10° 353° (N) 2,242 8.2 59.0°
Maximum altitude 13:07:49 12° 16° (NNE) 2,140 8.2 59.1°
Drops below altitude 10° 13:09:55 10° 40° (NE) 2,340 8.4 59.1°
Sets 13:14:10 0° 70° (ENE) 3,371 9.3 59.2°
